Home > Weather > Norrköping > Past weeks

Flag for Sweden Past Weather in Norrköping, Sweden — Yesterday and Last 2 Weeks

Now
54 °F

Partly sunny.


Feels Like: 50 °F
Forecast: 48 / 69 °F
Wind: 12 mph from East

Location: Norrkoping Airport

Current Time: May 29, 2016 at 7:52:28 AM

Latest Report: May 29, 2016 at 7:20 AM


Visibility: N/A

Pressure: 30.12 "Hg

Humidity: 94%

Dew Point: 52 °F

Location of NorrköpingLocation

Past Weather in Norrköping — Graph

°F

Norrköping Temperature Yesterday

Maximum temperature yesterday: 63 °F (at 12:50 PM)
Minimum temperature yesterday: 48 °F (at 12:20 AM)
Average temperature yesterday: 55 °F

High & Low Weather Summary for the Past Weeks

 TemperatureHumidityPressure
High75 °F (May 22, 3:50 PM)100% (May 14, 3:50 PM)30.18 "Hg (May 14, 3:50 PM)
Low41 °F (May 14, 11:20 PM)41% (May 15, 8:50 PM)29.53 "Hg (May 14, 6:20 AM)
Average53 °F77%29.87 "Hg
* Reported May 14 6:20 AM — May 29 6:20 AM, Norrköping, Weather by CustomWeather, © 2016

Note: Actual official high and low records may vary slightly from our data, if they occured in-between our weather recording intervals... More about our weather records

Advertising

Norrköping Weather History for the Previous 24 Hours

Scroll right to see more
 ConditionsComfort  
Time TempWeatherWind HumidityBarometerVisibility
6:20 AM
Sun, May 29
54 °FLight rain. Broken clouds.8 mph94%30.12 "HgN/A
5:50 AM54 °FPartly sunny.13 mph94%30.12 "HgN/A
5:20 AM54 °FLight rain. Mostly cloudy.7 mph94%30.12 "HgN/A
4:50 AM54 °FPassing clouds.8 mph94%30.12 "HgN/A
4:20 AM52 °FPartly cloudy.9 mph100%30.12 "HgN/A
3:50 AM52 °FPartly cloudy.10 mph100%30.12 "HgN/A
3:20 AM52 °FLight rain. Passing clouds.9 mph100%30.15 "HgN/A
2:50 AM54 °FPartly cloudy.10 mph94%30.15 "HgN/A
2:20 AM54 °FPassing clouds.10 mph94%30.15 "HgN/A
1:50 AM54 °FPassing clouds.8 mph94%30.15 "HgN/A
1:20 AM54 °FLight rain. Passing clouds.8 mph94%30.15 "HgN/A
12:50 AM54 °FPassing clouds.7 mph94%30.15 "HgN/A
12:20 AM54 °FLight rain. Mostly cloudy.9 mph94%30.15 "HgN/A
11:50 PM
Sat, May 28
54 °FPassing clouds.10 mph94%30.18 "HgN/A
11:20 PM54 °FOvercast.8 mph88%30.18 "HgN/A
10:50 PM54 °FPartly cloudy.7 mph88%30.18 "HgN/A
10:20 PM55 °FOvercast.9 mph82%30.18 "HgN/A
9:50 PM55 °FOvercast.8 mph82%30.18 "HgN/A
9:20 PM55 °FPartly sunny.8 mph82%30.18 "HgN/A
8:50 PM57 °FOvercast.10 mph82%30.18 "HgN/A
7:50 PM57 °FBroken clouds.10 mph82%30.15 "HgN/A
7:20 PM59 °FPartly sunny.8 mph77%30.15 "HgN/A
6:50 PM57 °FBroken clouds.9 mph88%30.15 "HgN/A
6:20 PM59 °FOvercast.8 mph82%30.15 "HgN/A
5:50 PM59 °FOvercast.12 mph82%30.15 "HgN/A
5:20 PM63 °FBroken clouds.13 mph73%30.15 "HgN/A
4:50 PM63 °FBroken clouds.10 mph73%30.15 "HgN/A
4:20 PM63 °FBroken clouds.12 mph73%30.15 "HgN/A
3:50 PM61 °FBroken clouds.13 mph72%30.15 "HgN/A
3:20 PM61 °FPartly sunny.9 mph72%30.18 "HgN/A
2:50 PM61 °FBroken clouds.9 mph63%30.18 "HgN/A
1:50 PM61 °FMore clouds than sun.7 mph68%30.18 "HgN/A
1:20 PM61 °FBroken clouds.8 mph68%30.18 "HgN/A
12:50 PM63 °FBroken clouds.7 mph68%30.18 "HgN/A
12:20 PM61 °FOvercast.5 mph72%30.18 "HgN/A
11:50 AM59 °FOvercast.6 mph77%30.18 "HgN/A
11:20 AM59 °FPartly sunny.6 mph77%30.18 "HgN/A
10:50 AM55 °FPassing clouds.6 mph82%30.18 "HgN/A
10:20 AM55 °FOvercast.7 mph82%30.18 "HgN/A
9:50 AM54 °FOvercast.6 mph88%30.18 "HgN/A
9:20 AM54 °FOvercast.6 mph88%30.18 "HgN/A
8:50 AM54 °FPartly sunny.3 mph88%30.18 "HgN/A
8:20 AM52 °FLow clouds.6 mph88%30.18 "HgN/A
7:50 AM50 °FLow clouds.7 mph94%30.18 "HgN/A
7:20 AM50 °FLow clouds.6 mph94%30.18 "HgN/A
Weather by CustomWeather, © 2016

See weather overviewHow to use our weather pages